Location: Brookview Estates
(36.0476°N, 86.6931°W)
Time: 22:16:29
(UTC+00:00)

Cosmos 2242 Rocket - Pass Details

Date: 30 March 2020
Orbit: 618 x 652 km, 82.5° (Epoch: 03 June)

Event Time Altitude Azimuth Distance (km) Brightness Sun altitude
Exits shadow 09:20:05 51° 3° (N) 821 4.2 -26.9°
Drops below altitude 10° 09:23:32 10° 6° (N) 2,063 6.6 -26.3°
Sets 09:25:48 0° 7° (N) 2,979 7.5 -25.9°
